• In Deutschland
  • Länderverzeichnis
  • Für 7 Tage
  • Wassertemperatur
  • Satellitenkarten
  • Wetterkarte
  • Widgets
  • user-avatar
    Anmelden

    Stündliche Wetter Manama

    Heute, 23 Mai, Mittwoch

    Zeit Temperatur Niederschläge Wind Luftdruck Luftfeuchtigkeit
    00:00 +34°C° 0 mm 2 m/S 756 mmHg 27%
    01:00 +34°C° 0 mm 2 m/S 756 mmHg 28%
    02:00 +34°C° 0 mm 2 m/S 756 mmHg 29%
    03:00 +32°C° 0 mm 2 m/S 756 mmHg 32%
    04:00 +32°C° 0 mm 1 m/S 756 mmHg 33%
    05:00 +32°C° 0 mm 1 m/S 756 mmHg 33%
    06:00 +30°C° 0 mm 0 m/S 756 mmHg 33%
    07:00 +33°C° 0 mm 1 m/S 757 mmHg 31%
    08:00 +34°C° 0 mm 1 m/S 757 mmHg 29%
    09:00 +35°C° 0 mm 1 m/S 757 mmHg 27%
    10:00 +36°C° 0 mm 1 m/S 757 mmHg 25%
    11:00 +38°C° 0 mm 2 m/S 757 mmHg 22%
    12:00 +39°C° 0 mm 2 m/S 757 mmHg 20%
    13:00 +39°C° 0 mm 2 m/S 756 mmHg 19%
    14:00 +40°C° 0 mm 3 m/S 756 mmHg 19%
    15:00 +40°C° 0 mm 3 m/S 755 mmHg 18%
    16:00 +39°C° 0 mm 3 m/S 755 mmHg 19%
    17:00 +38°C° 0 mm 2 m/S 755 mmHg 20%
    18:00 +38°C° 0 mm 2 m/S 755 mmHg 21%
    19:00 +37°C° 0 mm 2 m/S 755 mmHg 22%
    20:00 +35°C° 0 mm 1 m/S 755 mmHg 22%
    21:00 +35°C° 0 mm 1 m/S 755 mmHg 22%
    22:00 +34°C° 0 mm 1 m/S 754 mmHg 22%
    23:00 +35°C° 0 mm 2 m/S 754 mmHg 21%

    Morgen, 24 Mai, Donnerstag

    Zeit Temperatur Niederschläge Wind Luftdruck Luftfeuchtigkeit
    00:00 +35°C° 0 mm 2 m/S 754 mmHg 20%
    01:00 +34°C° 0 mm 2 m/S 754 mmHg 22%
    02:00 +33°C° 0 mm 1 m/S 754 mmHg 24%
    03:00 +32°C° 0 mm 1 m/S 754 mmHg 26%
    04:00 +32°C° 0 mm 1 m/S 754 mmHg 25%
    05:00 +34°C° 0 mm 2 m/S 754 mmHg 23%
    06:00 +34°C° 0 mm 2 m/S 754 mmHg 22%
    07:00 +36°C° 0 mm 2 m/S 754 mmHg 20%
    08:00 +37°C° 0 mm 3 m/S 755 mmHg 18%
    09:00 +38°C° 0 mm 3 m/S 755 mmHg 15%
    10:00 +39°C° 0 mm 3 m/S 754 mmHg 15%
    11:00 +40°C° 0 mm 2 m/S 754 mmHg 15%
    12:00 +41°C° 0 mm 2 m/S 754 mmHg 14%
    13:00 +41°C° 0 mm 2 m/S 754 mmHg 14%
    14:00 +42°C° 0 mm 3 m/S 753 mmHg 14%
    15:00 +42°C° 0 mm 3 m/S 753 mmHg 14%
    16:00 +40°C° 0 mm 3 m/S 753 mmHg 17%
    17:00 +39°C° 0 mm 3 m/S 752 mmHg 19%
    18:00 +38°C° 0 mm 3 m/S 752 mmHg 21%
    19:00 +37°C° 0 mm 3 m/S 753 mmHg 22%
    20:00 +37°C° 0 mm 3 m/S 753 mmHg 23%
    21:00 +36°C° 0 mm 2 m/S 753 mmHg 24%
    22:00 +36°C° 0 mm 3 m/S 753 mmHg 24%
    23:00 +36°C° 0 mm 3 m/S 752 mmHg 24%

    übermorgen, 25 Mai, Freitag

    Zeit Temperatur Niederschläge Wind Luftdruck Luftfeuchtigkeit
    00:00 +36°C° 0 mm 3 m/S 752 mmHg 24%
    01:00 +35°C° 0 mm 3 m/S 752 mmHg 24%
    02:00 +35°C° 0 mm 2 m/S 751 mmHg 25%
    03:00 +34°C° 0 mm 2 m/S 751 mmHg 26%
    04:00 +35°C° 0 mm 2 m/S 751 mmHg 26%
    05:00 +35°C° 0 mm 2 m/S 752 mmHg 26%
    06:00 +35°C° 0 mm 3 m/S 752 mmHg 27%
    07:00 +36°C° 0 mm 3 m/S 752 mmHg 25%
    08:00 +37°C° 0 mm 3 m/S 753 mmHg 24%
    09:00 +38°C° 0 mm 4 m/S 753 mmHg 23%
    10:00 +39°C° 0 mm 3 m/S 753 mmHg 21%
    11:00 +40°C° 0 mm 3 m/S 753 mmHg 19%
    12:00 +40°C° 0 mm 3 m/S 753 mmHg 18%
    13:00 +42°C° 0 mm 3 m/S 752 mmHg 17%
    14:00 +42°C° 0 mm 3 m/S 752 mmHg 17%
    15:00 +42°C° 0 mm 3 m/S 751 mmHg 16%
    16:00 +41°C° 0 mm 5 m/S 751 mmHg 21%
    17:00 +40°C° 0 mm 6 m/S 751 mmHg 26%
    18:00 +39°C° 0 mm 7 m/S 751 mmHg 31%
    19:00 +38°C° 0 mm 7 m/S 751 mmHg 33%
    20:00 +38°C° 0 mm 7 m/S 752 mmHg 34%
    21:00 +36°C° 0 mm 6 m/S 752 mmHg 35%
    22:00 +36°C° 0 mm 6 m/S 752 mmHg 35%
    23:00 +35°C° 0 mm 5 m/S 752 mmHg 35%

    26 Mai, Samstag

    Zeit Temperatur Niederschläge Wind Luftdruck Luftfeuchtigkeit
    00:00 +35°C° 0 mm 4 m/S 752 mmHg 35%
    01:00 +34°C° 0 mm 3 m/S 752 mmHg 34%
    02:00 +34°C° 0 mm 2 m/S 752 mmHg 34%
    03:00 +33°C° 0 mm 1 m/S 752 mmHg 33%
    04:00 +34°C° 0 mm 2 m/S 752 mmHg 33%
    05:00 +34°C° 0 mm 3 m/S 752 mmHg 33%
    06:00 +34°C° 0 mm 3 m/S 753 mmHg 33%
    07:00 +35°C° 0 mm 4 m/S 753 mmHg 33%
    08:00 +36°C° 0 mm 4 m/S 753 mmHg 33%
    09:00 +37°C° 0 mm 5 m/S 754 mmHg 33%
    10:00 +38°C° 0 mm 4 m/S 754 mmHg 30%
    11:00 +40°C° 0 mm 4 m/S 753 mmHg 28%
    12:00 +39°C° 0 mm 3 m/S 753 mmHg 25%
    13:00 +40°C° 0 mm 3 m/S 753 mmHg 23%
    14:00 +40°C° 0 mm 2 m/S 753 mmHg 22%
    15:00 +41°C° 0 mm 2 m/S 752 mmHg 20%
    16:00 +40°C° 0 mm 3 m/S 752 mmHg 25%
    17:00 +38°C° 0 mm 4 m/S 753 mmHg 31%
    18:00 +37°C° 0 mm 5 m/S 753 mmHg 37%
    19:00 +37°C° 0 mm 5 m/S 753 mmHg 40%
    20:00 +36°C° 0 mm 5 m/S 754 mmHg 43%
    21:00 +35°C° 0 mm 5 m/S 754 mmHg 46%
    22:00 +35°C° 0 mm 5 m/S 754 mmHg 46%
    23:00 +34°C° 0 mm 4 m/S 754 mmHg 47%

    27 Mai, Sonntag

    Zeit Temperatur Niederschläge Wind Luftdruck Luftfeuchtigkeit
    00:00 +34°C° 0 mm 4 m/S 754 mmHg 47%
    01:00 +34°C° 0 mm 5 m/S 754 mmHg 48%
    02:00 +34°C° 0 mm 5 m/S 754 mmHg 50%
    03:00 +33°C° 0 mm 5 m/S 754 mmHg 52%
    04:00 +33°C° 0 mm 5 m/S 754 mmHg 55%
    05:00 +33°C° 0 mm 5 m/S 755 mmHg 58%
    06:00 +33°C° 0 mm 5 m/S 755 mmHg 61%
    07:00 +34°C° 0 mm 5 m/S 755 mmHg 58%
    08:00 +35°C° 0 mm 5 m/S 756 mmHg 55%
    09:00 +36°C° 0 mm 4 m/S 756 mmHg 51%
    10:00 +36°C° 0 mm 4 m/S 756 mmHg 47%
    11:00 +37°C° 0 mm 3 m/S 755 mmHg 44%
    12:00 +38°C° 0 mm 3 m/S 755 mmHg 40%
    13:00 +38°C° 0 mm 4 m/S 754 mmHg 39%
    14:00 +40°C° 0 mm 4 m/S 754 mmHg 38%
    15:00 +40°C° 0 mm 5 m/S 753 mmHg 38%
    16:00 +39°C° 0 mm 5 m/S 754 mmHg 42%
    17:00 +37°C° 0 mm 5 m/S 754 mmHg 46%
    18:00 +36°C° 0 mm 5 m/S 754 mmHg 50%
    19:00 +36°C° 0 mm 4 m/S 754 mmHg 52%
    20:00 +35°C° 0 mm 4 m/S 755 mmHg 54%
    21:00 +34°C° 0 mm 3 m/S 755 mmHg 56%
    22:00 +34°C° 0 mm 3 m/S 754 mmHg 56%
    23:00 +34°C° 0 mm 3 m/S 754 mmHg 56%

    28 Mai, Montag

    Zeit Temperatur Niederschläge Wind Luftdruck Luftfeuchtigkeit
    00:00 +34°C° 0 mm 3 m/S 754 mmHg 57%
    01:00 +33°C° 0 mm 3 m/S 753 mmHg 57%
    02:00 +33°C° 0 mm 4 m/S 753 mmHg 58%
    03:00 +33°C° 0 mm 4 m/S 753 mmHg 59%
    04:00 +33°C° 0 mm 4 m/S 753 mmHg 59%
    05:00 +33°C° 0 mm 4 m/S 754 mmHg 58%
    06:00 +33°C° 0 mm 3 m/S 754 mmHg 58%
    07:00 +34°C° 0 mm 3 m/S 754 mmHg 52%
    08:00 +35°C° 0 mm 4 m/S 754 mmHg 47%
    09:00 +37°C° 0 mm 4 m/S 755 mmHg 42%
    10:00 +37°C° 0 mm 4 m/S 754 mmHg 40%
    11:00 +38°C° 0 mm 4 m/S 754 mmHg 38%
    12:00 +40°C° 0 mm 4 m/S 754 mmHg 36%
    13:00 +40°C° 0 mm 4 m/S 754 mmHg 37%
    14:00 +40°C° 0 mm 4 m/S 753 mmHg 38%
    15:00 +41°C° 0 mm 5 m/S 753 mmHg 39%
    16:00 +40°C° 0 mm 4 m/S 753 mmHg 41%
    17:00 +38°C° 0 mm 4 m/S 753 mmHg 44%
    18:00 +37°C° 0 mm 4 m/S 753 mmHg 47%
    19:00 +37°C° 0 mm 4 m/S 753 mmHg 48%
    20:00 +36°C° 0 mm 4 m/S 753 mmHg 49%
    21:00 +36°C° 0 mm 4 m/S 753 mmHg 51%
    22:00 +36°C° 0 mm 4 m/S 753 mmHg 52%
    23:00 +35°C° 0 mm 4 m/S 753 mmHg 53%
    Mehr zeigen